Regional Weather Roundup
Issued by NWS Cleveland, OH

Home | Current Version | Previous Version | Graphics & Text | Print | Product List | Glossary On
Versions: 1 2 3 4 5 6 7 8 9 10 11 12 13 14 15 16 17 18 19 20 21 22 23 24 25 26 27 28 29 30 31 32 33 34 35 36 37 38 39 40 41 42 43 44 45 46 47 48 49 50
350
ASUS41 KCLE 190100
RWRCLE
OHIO REGIONAL WEATHER ROUNDUP
NATIONAL WEATHER SERVICE WILMINGTON, OH
800 PM EST THU JAN 18 2018

NOTE: "FAIR" INDICATES FEW OR NO CLOUDS BELOW 12,000 FEET WITH NO
SIGNIFICANT WEATHER AND/OR OBSTRUCTIONS TO VISIBILITY.

OHZ001>008-015>018-024>027-034-035-043-044-190200-
   NORTHWEST OHIO

CITY           SKY/WX    TMP DP  RH WIND       PRES   REMARKS
DEFIANCE       FAIR      24  13  62 SW14      30.07S WCI  12
FINDLAY        FAIR      28  12  51 SW17      30.09S WCI  16
TOLEDO EXPRESS FAIR      25  16  68 SW10      30.05R WCI  15
TOLEDO EXEC    FAIR      25  15  66 SW16      30.06S WCI  12
LIMA           FAIR      26  14  60 SW14      30.10S WCI  14
$$

OHZ009>014-019>023-028>033-038-089-190200-
   NORTHEAST OHIO

CITY           SKY/WX    TMP DP  RH WIND       PRES   REMARKS
CLE-HOPKINS    FAIR      29  13  51 S17G23    30.10S WCI  17
CLE-LAKEFRONT  FAIR      30  12  47 S20G31    30.06F WCI  17
CUY CO. ARPT   NOT AVBL
LORAIN-ELYRIA  FAIR      26  10  50 SW21      30.08S WCI  12
ASHTABULA      FAIR      24  12  60 SW13      30.05S WCI  12
AKRON-CANTON   FAIR      24  11  57 SW17      30.10S WCI  11
WOOSTER        NOT AVBL
MANSFIELD      FAIR      24  13  62 S17       30.10S WCI  11
YOUNGSTOWN     FAIR      24  11  57 SW15G26   30.07S WCI  11
$$

OHZ042-051>053-060>062-070>072-077>081-190200-
  SOUTHWEST OHIO

CITY           SKY/WX    TMP DP  RH WIND       PRES   REMARKS
CINC-COVINGTON FAIR      25  14  63 S9        30.23S WCI  15
CINC-LUNKEN    FAIR      26  13  57 S9        30.28R WCI  17
HAMILTON       FAIR      28  13  53 S3        30.24F
DAYTON         NOT AVBL
WRIGHT-PAT AFB FAIR      26   6  43 S16       30.17F WCI  13
DAYTON GENERAL FAIR      26  13  57 S12       30.18F WCI  16
WILMINGTON     FAIR      24  12  60 SW14      30.20R WCI  12
$$

OHZ036-037-039>041-045>050-054>059-063>069-073>076-082>088-190200-
  CENTRAL AND SOUTHEAST OHIO

CITY           SKY/WX    TMP DP  RH WIND       PRES   REMARKS
COLUMBUS       FAIR      25  13  60 S10       30.21R WCI  15
OSU AIRPORT    FAIR      23  14  68 S10       30.18S WCI  12
BOLTON FIELD   NOT AVBL
RICKENBACK AFB NOT AVBL
NEWARK         FAIR      24  10  55 SW9       30.19S WCI  14
MARION         FAIR      23  13  65 S17       30.13F WCI   9
LANCASTER      FAIR      25  11  55 S8        30.22S WCI  16
ZANESVILLE     FAIR      24  10  55 S7        30.20S WCI  16
NEW PHILLY     FAIR      26  10  50 S6        30.18S WCI  19
$$




USA.gov is the U.S. government's official web portal to all federal, state and local government web resources and services.